Tracking 19164 objects as of 21-May-2018
HD Live streaming from Space Station
objects crossing your sky now

FENGYUN 1C DEB

Track FENGYUN 1C DEB now!
10-day predictions


NORAD ID: 30385
Int'l Code: 1999-025ACY
Perigee: 689.2 km
Apogee: 883.3 km
Inclination: 99.1 °
Period: 100.4 minutes
Semi major axis: 7157 km
RCS: 0.023 m2 (small)
Launch date: May 10, 1999
Source: People's Republic of China (PRC)
Launch site: Taiyaun Space Center, China (TSC)

Note: This is SATELLITE DEBRIS
aabbcc
Your satellite tracking list
Your tracking list is empty




NASA's NSSDC Master Catalog

Two Line Element Set (TLE):
1 30385U 99025ACY 18140.58406900  .00000100  00000-0  48723-4 0  9999
2 30385  99.0620   0.3125 0135638  95.6950 318.5484 14.33778198591513
Source of the keplerian elements: AFSPC